{"data":{"norad_id":59076,"intl_designator":"2024-041C","name":"STARLINK-31259","alt_names":[],"object_type":"PAYLOAD","status":"ACTIVE","operator":null,"country":"US","launch_date":"2024-02-29","launch_site_code":"AFETR","launch_vehicle":null,"mission":null,"orbit_class":"UNKNOWN","rcs_meters":null,"size_class":null,"mass_kg":null,"dimensions":null,"purposes":["comms"],"wikipedia_slug":null,"has_3d_model":false,"image_url":null,"decayed_at":null,"tle_current":{"epoch":"2026-09-20T18:56:16.011744Z","epoch_age_seconds":130751,"freshness":"FRESH","line1":"1 59076U 24041C   26263.78907421 -.00000650  00000+0 -14093-4 0  9998","line2":"2 59076  43.0034 288.5292 0000877 282.8394  77.2360 15.27570470143064","mean_motion":15.2757047,"eccentricity":8.77e-5,"inclination_deg":43.0034,"raan_deg":288.5292,"arg_perigee_deg":282.8394,"mean_anomaly_deg":77.236,"bstar":-1.4093e-5,"rev_number":14306,"period_min":94.267336812291,"perigee_km":482.47590391314,"apogee_km":483.67936095967,"semimajor_km":6861.2146324364,"source":"CELESTRAK","updated_at":"2026-09-21T09:00:34.033782Z"}}}